Regional Weather Roundup
Issued by NWS State College, PA

Home | Current Version | Previous Version | Graphics & Text | Print | Product List | Glossary Off
Versions: 1 2 3 4 5 6 7 8 9 10 11 12 13 14 15 16 17 18 19 20 21 22 23 24 25 26 27 28 29 30 31 32 33 34 35 36 37 38 39 40 41 42 43 44 45 46 47 48 49 50

000
ASUS41 KCTP 292203
RWRCTP

REGIONAL WEATHER ROUNDUP
NATIONAL WEATHER SERVICE STATE COLLEGE PA
600 PM EDT FRI AUG 29 2014

Note: "fair" indicates few or no clouds below 12,000 feet with no
significant weather and/or obstructions to visibility.

* = STATION THAT DOES NOT REPORT PRECIPITATION /E.G. RAIN...SNOW...ETC/
    THUNDER OR FOG.

PAZ002>004-007>009-013>016-020>023-029>032-292300-
WESTERN PENNSYLVANIA

CITY           SKY/WX    TMP DP  RH WIND       PRES   REMARKS
ERIE           SUNNY     75  56  51 N8        30.10S
MEADVILLE      SUNNY     73  52  47 E5        30.13S
FRANKLIN*      SUNNY     73  52  46 SE6       30.15S
NEW CASTLE     FAIR      78  54  43 CALM      30.12S
BEAVER COUNTY  SUNNY     77  50  38 CALM      30.12F
BUTLER*        SUNNY     75  52  43 E3        30.14S
PITTSBURGH INT MOSUNNY   78  48  34 S6        30.11S
PITTSBURGH     SUNNY     78  52  40 SE5       30.11S
INDIANA*       SUNNY     79  52  38 SE6       30.17S
LATROBE        MOSUNNY   79  55  44 CALM      30.13S
WASHINGTON CO* SUNNY     79  54  41 E3        30.12S
$$

PAZ004>006-010>012-017>019-024>028-033>037-041-042-045-046-049>053-292300-
CENTRAL PENNSYLVANIA

CITY           SKY/WX    TMP DP  RH WIND       PRES   REMARKS
BRADFORD       SUNNY     70  48  45 S6        30.17S
DUBOIS         SUNNY     72  50  45 SE5       30.16S
CLEARFIELD     SUNNY     72  51  47 E5        30.17S
JOHNSTOWN      SUNNY     72  51  47 SE7       30.18R
ALTOONA        SUNNY     74  54  49 E7        30.17S
STATE COLLEGE  SUNNY     72  55  56 VRB6      30.18R
WILLIAMSPORT   SUNNY     74  52  46 SE8       30.15S
SELINSGROVE    SUNNY     75  55  49 CALM      30.17S
FT INDIANTOWN  SUNNY     75  52  44 E5        30.18R
CAPITAL CITY   SUNNY     75  51  43 E8        30.16S
HARRISBURG     MOSUNNY   77  51  40 S3        30.15S
YORK           SUNNY     76  54  46 SW3       30.16S
$$

PAZ038>040-043-044-047-048-054-055-060>062-067>071-292300-
EASTERN PENNSYLVANIA

CITY           SKY/WX    TMP DP  RH WIND       PRES   REMARKS
SCRANTON       MOSUNNY   75  49  39 CALM      30.17S
MOUNT POCONO   MOSUNNY   70  52  52 SE8       30.21R
ALLENTOWN      MOSUNNY   78  51  38 E7        30.17S
QUAKERTOWN*    MOCLDY    77  52  41 MISG      30.18S
READING        SUNNY     77  52  41 SE6       30.16S
LANCASTER      SUNNY     75  51  43 E5        30.17S
COATESVILLE    CLEAR     73  54  49 SE3       30.19S
POTTSTOWN      MOSUNNY   76  51  41 SW6       30.19R
BLUE BELL      MOSUNNY   79  50  36 CALM      30.17R
DOYLESTOWN     PTSUNNY   74  52  46 VRB5      30.17R
WILLOW GROVE   NOT AVBL
NORTH PHILA    PTSUNNY   78  49  35 SE6       30.19R
PHILADELPHIA   PTSUNNY   78  51  38 S6        30.17R
$$



USA.gov is the U.S. government's official web portal to all federal, state and local government web resources and services.